Regional Weather Roundup
Issued by NWS

Home | Current Version | Previous Version | Graphics & Text | Print | Product List | Glossary On
Versions: 1 2 3 4 5 6 7 8 9 10 11 12 13 14 15 16 17 18 19 20 21 22 23 24 25 26 27 28 29 30 31 32 33 34 35 36 37 38 39 40 41 42 43 44 45 46 47 48 49 50
000
ASUS43 KIND 292059
RWRIN

WEATHER ROUNDUP FOR INDIANA
NATIONAL WEATHER SERVICE INDIANAPOLIS IN
500 PM EDT FRI MAY 29 2015

NOTE: "FAIR" INDICATES FEW OR NO CLOUDS BELOW 12,000 FEET WITH NO
SIGNIFICANT WEATHER AND/OR OBSTRUCTIONS TO VISIBILITY.

* - STATION DOES NOT REPORT WEATHER SUCH AS PRECIPITATION OR FOG.

+ - STATION NOT QUALITY CONTROLLED BY THE NATIONAL WEATHER SERVICE.
    USE DATA WITH CAUTION...ESPECIALLY DEWPOINT AND RELATIVE
    HUMIDITY OBSERVATIONS.

INZ001>003-010>013-019-020-292200-
NORTHWEST INDIANA

CITY           SKY/WX    TMP DP  RH WIND       PRES   REMARKS
GARY /AIRPORT/ PTSUNNY   84  64  51 S12G23    29.94F
RENSSELAER +   MOSUNNY   84  63  48 S17G26    29.97F

$$

LMZ046-743>745-292200-
SOUTHERN LAKE MICHIGAN

STATION/POSITION TIME  TEMP    WIND        PRES    WAVE
                       AIR SEA DIR/SP/G            HT
                 (UTC) (F)     (DEG/KT/KT) (MB)    (FT)
BURNS HARBOR     2000   80     210/ 15/ 19 1014.2F
MICHIGAN CITY    2000   80     170/ 12/ 17   N/A
5NW MICH CITY    2000   71 57  210/ 12/ 14   N/A     1

$$

INZ004-005-014>016-021>024-292200-
NORTH CENTRAL INDIANA

CITY           SKY/WX    TMP DP  RH WIND       PRES   REMARKS
GOSHEN         PTSUNNY   84  64  50 S15G23    29.98F
SOUTH BEND     PTSUNNY   84  62  47 S14G25    29.97F

$$

INZ006>009-017-018-025>027-292200-
NORTHEAST INDIANA

CITY           SKY/WX    TMP DP  RH WIND       PRES   REMARKS
ANGOLA *+      MOSUNNY   86  81  84 S13       30.00F HX 102
FORT WAYNE     PTSUNNY   82  64  54 S17       30.02F

$$

INZ028-029-035-036-043>045-051>053-292200-
WEST CENTRAL INDIANA

CITY           SKY/WX    TMP DP  RH WIND       PRES   REMARKS
CRAWFORDSVL +  PTSUNNY   81  58  44 S16       30.02S
GREENCASTLE +  SUNNY     81  61  50 S10G17    30.04F
LAFAYETTE      PTSUNNY   83  62  49 SW9       29.98F
TERRE HAUTE    PTSUNNY   84  66  54 S15       30.01F

$$

INZ030>032-037>040-046>048-054>057-064-065-292200-
CENTRAL INDIANA

CITY           SKY/WX    TMP DP  RH WIND       PRES   REMARKS
COLUMBUS       PTSUNNY   82  63  51 S15G21    30.05F
GREENWOOD *+   MOSUNNY   82  61  47 S13       30.04F
INDIANAPOLIS   MOSUNNY   83  63  50 S17G23    30.02F
-EAGLE CREEK   PTSUNNY   82  64  54 S13       30.02F
KOKOMO *+      SUNNY     84  66  54 SW17G23   30.00F
MT COMFORT *+  SUNNY     84  48  28 S13G20    30.04F
SHELBYVILLE    PTSUNNY   84  65  52 SW12      30.04F

$$

INZ033-034-041-042-049-050-058-059-292200-
EAST CENTRAL INDIANA

CITY           SKY/WX    TMP DP  RH WIND       PRES   REMARKS
MUNCIE         LGT RAIN  82  65  56 SW8       30.03F

$$

INZ060-061-067>069-081>083-085>088-292200-
SOUTHWEST INDIANA

CITY           SKY/WX    TMP DP  RH WIND       PRES   REMARKS
EVANSVILLE     MOSUNNY   82  68  62 S8        30.04F
HUNTINGBURG *+ CLOUDY    79  66  65 S8        30.06F

$$

INZ062-063-066-070>080-084-089>092-292200-
SOUTH CENTRAL AND SOUTHEAST INDIANA

CITY           SKY/WX    TMP DP  RH WIND       PRES   REMARKS
BLOOMINGTON    MOSUNNY   83  65  54 S9        30.04F
MADISON *+     PTSUNNY   81  61  50 S12       30.09F
SEYMOUR +      MOSUNNY   84  63  48 SW13      30.05F

$$



USA.gov is the U.S. government's official web portal to all federal, state and local government web resources and services.